EST,Max TemperatureF,Mean TemperatureF,Min TemperatureF,Max Dew PointF,MeanDew PointF,Min DewpointF,Max Humidity, Mean Humidity, Min Humidity, Max Sea Level PressureIn, Mean Sea Level PressureIn, Min Sea Level PressureIn, Max VisibilityMiles, Mean VisibilityMiles, Min VisibilityMiles, Max Wind SpeedMPH, Mean Wind SpeedMPH, Max Gust SpeedMPH,PrecipitationIn, CloudCover, Events, WindDirDegrees
2013-1-1,37,32,27,26,20,12,70,57,47,29.90,29.80,29.75,10,10,10,14,8,24,0.00,3,,276
2013-1-2,32,26,19,13,10,5,65,52,43,30.06,29.96,29.91,10,10,10,13,7,23,0.00,1,,294
2013-1-3,24,19,14,13,9,2,86,65,44,30.13,30.08,30.04,10,8,2,7,5,17,0.00,4,Snow,279
2013-1-4,37,28,19,27,21,12,75,64,48,30.01,29.93,29.86,10,10,10,17,6,34,0.00,2,,254
2013-1-5,42,33,24,23,21,19,85,63,43,30.28,30.12,29.89,10,10,10,12,6,23,0.00,0,,268
2013-1-6,41,34,26,35,31,22,96,84,73,30.23,30.06,29.96,10,9,2,10,3,24,0.01,5,Rain-Snow,243
2013-1-7,42,34,25,32,28,21,92,77,65,30.43,30.26,29.99,10,10,6,13,4,20,0.01,3,,329
2013-1-8,46,40,35,35,33,29,89,78,58,30.41,30.37,30.32,10,10,10,17,8,30,0.00,2,,230
2013-1-9,46,37,28,42,34,26,100,88,61,30.41,30.27,30.05,10,6,2,14,3,30,0.00,2,,231
2013-1-10,46,42,37,29,26,23,68,53,42,30.50,30.32,30.08,10,10,10,14,9,29,0.00,0,,299
2013-1-11,42,35,28,37,31,24,89,76,65,30.51,30.41,30.25,10,10,8,7,2,,0.06,2,Rain,126
2013-1-12,46,42,37,42,39,35,100,89,76,30.26,30.19,30.15,10,9,4,6,3,,0.04,7,Rain,125
2013-1-13,48,44,39,47,44,39,100,96,87,30.19,30.13,30.06,10,3,0,8,2,,0.03,8,Fog,209
2013-1-14,52,48,44,52,45,34,100,93,61,30.19,30.05,29.99,10,2,0,12,6,23,0.01,7,Fog-Rain,226
2013-1-15,44,40,37,39,36,34,93,85,76,30.29,30.25,30.21,10,10,8,5,2,,0.11,8,Rain,346
2013-1-16,44,40,37,43,38,34,100,92,79,30.22,29.97,29.78,10,5,2,13,3,28,0.69,8,Rain,117
2013-1-17,42,38,34,35,30,22,93,75,55,30.07,29.98,29.87,10,10,10,13,5,21,0.00,2,,284
2013-1-18,30,24,15,25,15,0,93,69,35,30.50,30.20,30.02,10,5,0,15,8,30,0.24,4,Fog-Snow,338
2013-1-19,45,31,17,40,32,6,89,74,61,30.44,30.20,29.99,10,10,9,20,12,36,0.00,3,,223
2013-1-20,50,42,32,41,34,11,93,72,42,29.97,29.79,29.62,10,9,6,16,10,32,0.00,1,,243
2013-1-21,30,28,26,28,17,5,93,66,36,30.12,29.96,29.78,10,6,1,9,5,20,0.10,5,Snow,277
2013-1-22,28,23,17,27,17,0,93,74,35,30.06,29.81,29.71,10,6,1,13,5,25,0.11,6,Snow,290
2013-1-23,17,14,10,2,-4,-7,67,45,37,30.14,30.10,30.05,10,10,10,14,7,28,0.00,2,,281
2013-1-24,19,14,8,4,-2,-7,65,50,34,30.17,30.09,30.03,10,10,10,17,8,32,0.00,2,,299
2013-1-25,24,18,12,7,1,-3,54,46,35,30.30,30.20,30.05,10,10,9,10,7,21,0.00,2,,279
2013-1-26,26,22,19,20,14,1,89,70,39,30.18,30.02,29.96,10,7,2,14,5,30,0.00,6,Snow,319
2013-1-27,28,23,18,11,7,4,65,51,37,30.46,30.34,30.19,10,10,10,16,10,29,0.00,2,,309
2013-1-28,34,24,15,34,21,4,100,77,40,30.44,30.20,30.01,10,6,1,6,2,,0.23,6,Rain-Snow,121
2013-1-29,39,36,33,37,35,33,100,93,86,30.22,30.11,30.00,10,7,1,7,1,,0.01,8,Rain,138
2013-1-30,52,46,39,52,45,37,100,94,87,30.18,29.89,29.62,10,6,0,17,10,31,0.07,7,Fog-Rain,188
2013-1-31,55,45,34,54,42,12,100,82,40,29.62,29.31,29.12,10,6,1,23,16,41,0.31,5,Rain,214